Regional Weather Roundup
Issued by NWS Sterling, VA

Home | Current Version | Previous Version | Graphics & Text | Print | Product List | Glossary On
Versions: 1 2 3 4 5 6 7 8 9 10 11 12 13 14 15 16 17 18 19 20 21 22 23 24 25 26 27
000
ASUS41 KLWX 202211
RWRLWX

REGIONAL WEATHER ROUNDUP
NATIONAL WEATHER SERVICE BALTIMORE MD/WASHINGTON DC
500 PM EST MON NOV 20 2017

Note: "FAIR" indicates few or no clouds below 12,000 feet
with no significant weather and/or obstructions to visibility.
 TC=TEMPERATURE CELSIUS

 * =Non NWS site. Station does not report precipitation (e.g. rain,
    snow, etc.), thunder, or fog.

DCZ001-MDZ009-015-VAZ040>042-051-053>054-202300-
WASHINGTON METRO

CITY           SKY/WX    TMP DP  RH WIND       PRES   REMARKS
WASHINGTON NAT PTCLDY    50  21  32 SW9       30.18S
DULLES         PTCLDY    46  23  40 S5        30.17R
ANDREWS AFB    CLEAR     47  20  35 SW6       30.16S
FT BELVOIR     CLEAR     49  20  31 CALM      30.18S
QUANTICO       PTCLDY    51  20  29 W5        30.20S
COLLEGE PARK*  CLEAR     49  20  31 CALM      30.17S
LEESBURG*      CLEAR     48  27  43 S7        30.16S
MANASSAS*      CLEAR     47  22  37 S5        30.18S
GAITHERSBURG*  CLEAR     46  21  37 SW6       30.16S

$$

MDZ006>007-011-014-202300-
BALTIMORE METRO

CITY           SKY/WX    TMP DP  RH WIND       PRES   REMARKS
BWI AIRPORT    PTCLDY    46  22  38 SW3       30.16S
MD SCIENCE CTR   N/A     50  21  32 MISG      30.16S
MARTIN STATE   PTCLDY    48  23  37 W10       30.18S
ANNAPOLIS      CLEAR     49  23  36 CALM      30.17
FORT MEADE*    CLEAR     43  25  49 SW3       30.19S

$$

MDZ012-015-019>023-202300-
MARYLAND EASTERN SHORE

CITY           SKY/WX    TMP DP  RH WIND       PRES   REMARKS
OCEAN CITY     CLEAR     45  28  51 W8        30.21R
SALISBURY      CLEAR     43  28  55 S3        30.20R
CAMBRIDGE*     CLEAR     46  27  46 VRB5      30.19S
EASTON*        CLEAR     46  27  46 SW6       30.22R

$$

MDZ017>025-202300-
SOUTHERN MARYLAND

CITY           SKY/WX    TMP DP  RH WIND       PRES   REMARKS
PATUXENT RIVER PTCLDY    46  24  42 SW5       30.19S
ST INIGOES     CLEAR     45  32  60 CALM      30.19S
LEONARDTOWN*   CLEAR     46  27  46 S3        30.20S

$$

MDZ003>005-202300-
NORTH CENTRAL MARYLAND

CITY           SKY/WX    TMP DP  RH WIND       PRES   REMARKS
FREDERICK*     CLEAR     48  18  29 SW9       30.17F
HAGERSTOWN APT CLEAR     45  23  42 S5        30.13S
WESTMINSTER*   CLEAR     45  25  45 S5        30.13S

$$

MDZ501>502-202300-
WESTERN MARYLAND

CITY           SKY/WX    TMP DP  RH WIND       PRES   REMARKS
OAKLAND*       CLEAR     32  21  64 SW8       30.05S WCI  25
CUMBERLAND*    CLEAR     45  23  42 S5        30.17R

$$

VAZ025>031-202300-
SHENANDOAH VALLEY

CITY           SKY/WX    TMP DP  RH WIND       PRES   REMARKS
WINCHESTER*    CLEAR     45  23  42 S7        30.14S
FRONT ROYAL*   CLEAR     46  21  36 MISG      30.14S
LURAY*         CLEAR     46  21  36 SW12      30.16S
NEW MARKET*    CLEAR     45  20  36 SW6       30.15S
STAUNTON*      CLEAR     44  21  40 S7        30.19S
WAYNESBORO*    CLEAR     44  19  36 W3        30.17S

$$

WVZ021-048>050-054>055-202300-
EASTERN WEST VIRGINIA PANHANDLE

CITY           SKY/WX    TMP DP  RH WIND       PRES   REMARKS
MARTINSBURG    CLEAR     45  19  35 SW6       30.12F
PETERSBURG*    CLEAR     40  25  55 W8        30.13F

$$

VAZ036>039-050-202300-
CENTRAL FOOTHILLS

CITY           SKY/WX    TMP DP  RH WIND       PRES   REMARKS
CHARLOTTESVILL CLEAR     51  19  28 CALM      30.17S
CULPEPER*      CLEAR     48  19  31 S3        30.19S
ORANGE*        CLEAR     48  21  34 CALM      30.18
GORDONSVILLE*  CLEAR     47  24  39 SW3       30.17S
WARRENTON*     NOT AVBL

$$

VAZ055>057-202300-
NORTH AND CENTRAL PIEDMONT

CITY           SKY/WX    TMP DP  RH WIND       PRES   REMARKS
FREDERICKSBRG* CLEAR     49  25  39 S6        30.18S
STAFFORD*      CLEAR     48  20  32 CALM      30.22S

$$

NCZ024-NYZ072-PAZ021-071-VAZ022-071-202300-
OTHER REGIONAL OBSERVATIONS

CITY           SKY/WX    TMP DP  RH WIND       PRES   REMARKS
NEW YORK CITY  CLEAR     45  23  42 W10G21    30.09R
PHILADELPHIA   PTCLDY    46  23  40 W16       30.14R
PITTSBURGH     PTCLDY    42  22  44 SW10      30.07S
ROANOKE        MOCLDY    48  21  34 W6        30.18F
RICHMOND       PTCLDY    47  25  42 SW5       30.20S
RALEIGH        MOCLDY    53  24  32 VRB5      30.22S

$$

ANZ530>537-202300-
MARINE OBSERVATIONS

STATION/POSITION TIME  TEMP    WIND        PRES
                       AIR SEA DIR/SP/G
                 (UTC) (F)     (DEG/KT/KT) (MB)
THOMAS PT LIGHT  2200   50 52  230/ 10/ 11   N/A
BALT KEY BRIDGE  2148   49     210/  6/  8 1021.4R
COVE POINT       2148   50     250/  7/  9 1022.9S
LEWISETTA        2148   51 52  250/  3/  3 1022.5R
SOLOMONS ISLAND  2148   50 54  240/  6/  8 1022.0R
PINEY POINT      2136          290/  2/  3   N/A

$$





USA.gov is the U.S. government's official web portal to all federal, state and local government web resources and services.